AO-07 1 07530U 74089B 24200.59985330 -.00000013 00000-0 21025-3 0 9991 2 07530 101.9788 195.5428 0012447 26.0443 86.6626 12.53677078272979 UO-11 1 14781U 84021B 24200.51866193 .00003653 00000-0 41476-3 0 9995 2 14781 97.7059 168.8550 0007456 345.5332 14.5670 14.86885027153146 AO-27 1 22825U 93061C 24200.59308902 .00000382 00000-0 16406-3 0 9995 2 22825 98.7866 253.6934 0008168 354.9733 5.1366 14.30524467607105 FO-29 1 24278U 96046B 24200.83995083 .00000063 00000-0 96456-4 0 9994 2 24278 98.5800 131.3455 0351020 106.2154 257.7905 13.53193435378962 NOAA-15 1 25338U 98030A 24200.79776027 .00000568 00000-0 25294-3 0 9998 2 25338 98.5673 227.2629 0009406 227.6486 132.3898 14.26631889361940 GO-32 1 25397U 98043D 24200.50350640 .00000305 00000-0 15250-3 0 9995 2 25397 98.9233 167.6970 0002373 77.5909 282.5535 14.24071435351875 ISS 1 25544U 98067A 24200.87896740 .00019841 00000-0 35401-3 0 9996 2 25544 51.6388 158.3318 0010400 81.5465 15.8636 15.50011641463462 NO-44 1 26931U 01043C 24200.51244913 .00000450 00000-0 20099-3 0 9998 2 26931 67.0499 250.6243 0007630 275.8093 84.2138 14.31279389190430 SO-50 1 27607U 02058C 24200.23479861 .00003637 00000-0 50488-3 0 9992 2 27607 64.5553 126.1053 0025592 95.9866 264.4156 14.79161968160913 CO-55 1 27844U 03031E 24200.58457332 .00001018 00000-0 46806-3 0 9994 2 27844 98.6768 207.1760 0010819 58.0222 302.2006 14.23321120 92252 CO-57 1 27848U 03031J 24200.60146828 .00000868 00000-0 40642-3 0 9990 2 27848 98.6799 207.4199 0010859 72.4045 287.8319 14.22754303 92051 RS-22 1 27939U 03042A 24200.87178684 .00003053 00000-0 51590-3 0 9990 2 27939 98.2938 357.5803 0011175 325.0310 140.8507 14.70112093112930 NOAA-18 1 28654U 05018A 24200.78424536 .00000489 00000-0 28469-3 0 9999 2 28654 98.8739 277.4868 0013612 337.7672 22.2909 14.13256594987728 CO-58 1 28895U 05043F 24200.32563236 .00004162 00000-0 73521-3 0 9996 2 28895 98.2049 336.2060 0014450 257.8067 102.1519 14.67906116999024 CO-65 1 32785U 08021C 24200.49989164 .00008523 00000-0 74136-3 0 9996 2 32785 97.7546 165.5762 0010238 214.1111 145.9454 14.97166440880169 AAUSAT2 1 32788U 08021F 24200.48141347 .00033713 00000-0 16042-2 0 9991 2 32788 97.5944 180.8463 0007776 79.1879 281.0230 15.19063493883079 CO-66 1 32791U 08021J 24200.46570916 .00015600 00000-0 11143-2 0 9993 2 32791 97.6912 171.4759 0005293 179.1918 180.9317 15.04573521881220 RS-30 1 32953U 08025A 24200.78107603 .00000042 00000-0 23388-3 0 9990 2 32953 82.5011 69.8343 0020319 37.7626 322.4875 12.43143728733054 PRISM 1 33493U 09002B 24200.38489230 .00035711 00000-0 16022-2 0 9998 2 33493 98.2032 250.7311 0013239 140.0696 220.1514 15.21032791843787 NOAA-19 1 33591U 09005A 24200.81096328 .00000481 00000-0 28190-3 0 9996 2 33591 99.0454 256.9422 0013572 199.0091 161.0575 14.13051198796090 SRMSAT 1 37841U 11058D 24200.51358186 .00000667 00000-0 22015-3 0 9995 2 37841 19.9732 327.3117 0011916 78.7787 342.6116 14.11142990658994 RS-40 1 38735U 12041C 24200.57861139 .00000015 00000-0 38703-4 0 9993 2 38735 82.4775 150.3169 0017749 146.2033 214.0182 12.42611924543072 ZACUBE-1 1 39417U 13066B 24200.42635986 .00010433 00000-0 10691-2 0 9991 2 39417 97.7347 155.7024 0051938 58.6207 302.0077 14.89636219576232 Delfi-N3xt 1 39428U 13066N 24200.53654280 .00015607 00000-0 19569-2 0 9994 2 39428 97.8369 118.0503 0099550 348.2094 11.6787 14.78785473570721 GOMX-1 1 39430U 13066Q 24200.55208932 .00004572 00000-0 75716-3 0 9994 2 39430 97.7291 73.0365 0140250 152.5637 208.3063 14.64362302567451 LO-74 1 39440U 13066AA 24200.80992872 .00006512 00000-0 76113-3 0 9994 2 39440 97.8132 143.8055 0069761 169.3226 190.9489 14.83686489574223 AO-73 1 39444U 13066AE 24200.45824569 .00012187 00000-0 11601-2 0 9991 2 39444 97.7200 158.9389 0048810 39.2832 321.1912 14.92643610574777 SPROUT 1 39770U 14029E 24200.86431005 .00456203 00000-0 47032-2 0 9995 2 39770 98.0037 357.1981 0006739 279.1086 80.9408 15.63336363552579 DTUSAT-2 1 40030U 14033W 24200.59784128 .00011445 00000-0 95006-3 0 9998 2 40030 98.0067 153.8815 0009999 55.7206 304.4962 14.98908424547408 EO-80 1 40032U 14033Y 24200.83270716 .00011979 00000-0 99162-3 0 9999 2 40032 98.0096 154.1301 0012122 58.0122 302.2277 14.98983205547934 XW-2C 1 40906U 15049H 24200.82132500 .00043589 00000-0 93070-3 0 9998 2 40906 97.4764 218.4988 0008881 171.4843 188.6557 15.44700324489350 XW-2D 1 40907U 15049J 24200.80398440 .00071610 00000-0 11199-2 0 9991 2 40907 97.4702 221.3655 0008655 159.5302 200.6299 15.53489893489604 LILACSAT-2 1 40908U 15049K 24200.85130706 .00014448 00000-0 54584-3 0 9998 2 40908 97.5230 209.8017 0010687 231.5182 128.5099 15.27050069488324 XW-2B 1 40911U 15049N 24200.84719800 .00071559 00000-0 11560-2 0 9991 2 40911 97.4681 221.4541 0008372 163.0693 197.0840 15.52590550489477 IO-86 1 40931U 15052B 24180.14795698 .00001574 00000-0 12542-3 0 9998 2 40931 5.9997 274.4192 0013395 238.9714 120.9097 14.77898591473081 ChubuSat-2 1 41338U 16012B 24200.38034206 .00008412 00000-0 51664-3 0 9993 2 41338 30.9994 189.9845 0011523 190.7194 169.3199 15.08711563462313 ChubuSat-3 1 41339U 16012C 24200.66684731 .00008141 00000-0 50841-3 0 9994 2 41339 31.0059 186.8225 0011568 197.7963 162.2271 15.08095615462334 Horyu-4 1 41340U 16012D 24200.19783088 .00020008 00000-0 97052-3 0 9990 2 41340 31.0012 133.3656 0010475 286.2610 73.6878 15.17285089462861 Lapan A3 1 41603U 16040E 24200.86045652 .00005876 00000-0 23395-3 0 9990 2 41603 97.1414 213.1499 0011583 359.0101 1.1113 15.25546016448051 Pratham 1 41783U 16059A 24200.55014611 .00001910 00000-0 36267-3 0 9993 2 41783 97.8356 218.4147 0030952 281.6465 78.1266 14.64997392417131 CAS-2T 1 41847U 16066G 24200.54736265 .00003594 00000-0 52670-3 0 9993 2 41847 98.4599 271.6128 0354542 82.9972 281.1396 14.41454474404014 CAS-4B 1 42759U 17034B 24200.86406247 .00025858 00000-0 89229-3 0 9998 2 42759 43.0170 47.3759 0012059 205.1281 154.8986 15.29424859392256 CAS-4A 1 42761U 17034D 24200.86305237 .00025294 00000-0 87016-3 0 9994 2 42761 43.0209 45.7100 0011383 217.7059 142.2997 15.29542443392269 Aalto 1 1 42775U 17036L 24200.59919040 .00200669 00000-0 12361-2 0 9995 2 42775 97.0979 230.8047 0006014 117.3909 242.7970 15.76594091394041 D-SAT 1 42794U 17036AF 24200.46741468 .00013718 00000-0 94148-3 0 9990 2 42794 97.4809 181.2214 0109525 43.8281 317.1570 15.01266841385411 TechnoSat 1 42829U 17042E 24200.80377558 .00005646 00000-0 49577-3 0 9996 2 42829 97.3853 20.1078 0011711 334.3063 25.7577 14.96906780381907 AO-91 1 43017U 17073E 24200.60721131 .00013171 00000-0 80564-3 0 9991 2 43017 97.5747 74.9959 0208468 188.1040 171.6797 14.93963693360357 TianYi 2 1 43155U 18008A 24200.87900554 .00263109 00000-0 19803-2 0 9995 2 43155 97.2297 255.7666 0004312 259.4203 100.6575 15.71745128359864 TianYi 6 1 43158U 18008D 24200.70908935 .00094731 00000-0 15660-2 0 9991 2 43158 97.2542 249.4922 0003315 325.2684 34.8352 15.51887670359354 S-Net D 1 43186U 18014G 24200.50617585 .00008015 00000-0 56887-3 0 9992 2 43186 97.5883 101.8017 0008340 257.1359 102.8936 15.04973936353219 S-Net B 1 43187U 18014H 24200.50858425 .00008050 00000-0 57136-3 0 9990 2 43187 97.5892 101.7561 0009145 251.5903 108.4329 15.04967423353212 S-Net A 1 43188U 18014J 24200.50729453 .00008066 00000-0 57231-3 0 9992 2 43188 97.5896 101.8700 0009041 252.3874 107.6365 15.04975834353210 S-Net C 1 43189U 18014K 24200.51066686 .00008044 00000-0 57071-3 0 9994 2 43189 97.5915 101.8274 0010847 244.1576 115.8532 15.04969340351763 Ten-Koh 1 43677U 18084G 24200.50749651 .00006173 00000-0 55085-3 0 9996 2 43677 98.0652 354.9680 0012546 272.9444 87.0340 14.96286303311407 PO-101 1 43678U 18084H 24200.79090175 .00004097 00000-0 37568-3 0 9997 2 43678 98.0745 359.7119 0007574 289.1184 70.9216 14.95460181311643 QO-100 1 43700U 18090A 24200.50297653 .00000159 00000-0 00000-0 0 9992 2 43700 0.0158 59.9593 0002343 93.6188 350.0757 1.00272228 20673 MinXSS-2 1 43758U 18099A 24200.12563714 .00018517 00000-0 11442-2 0 9997 2 43758 97.5527 262.0220 0016317 207.3327 152.7045 15.09804160307457 AO-95 1 43770U 18099N 24200.13244735 .00012449 00000-0 84721-3 0 9990 2 43770 97.5436 257.3254 0012269 253.3799 106.6081 15.06384905307220 RANGE-B 1 43772U 18099Q 24200.13125863 .00020826 00000-0 12540-2 0 9999 2 43772 97.5223 260.9117 0006126 154.1506 206.0031 15.10815143307399 RANGE-A 1 43773U 18099R 24200.53770024 .00008273 00000-0 62193-3 0 9991 2 43773 97.5017 252.7720 0011805 215.6601 144.3837 15.02762209307145 MOVE-II 1 43780U 18099Y 24200.76324162 .00031347 00000-0 15717-2 0 9999 2 43780 97.5203 263.4846 0006221 213.9770 146.1065 15.17264509307714 SNUSat 2 1 43782U 18099AA 24200.43118255 .00011918 00000-0 83073-3 0 9992 2 43782 97.5129 256.5989 0014644 190.1802 169.9131 15.05475794307279 SnugLite 1 43784U 18099AC 24200.42405304 .00013092 00000-0 88411-3 0 9993 2 43784 97.4944 255.9155 0004524 182.8429 177.2773 15.06709902307346 ITASat 1 1 43786U 18099AE 24200.11961176 .00010795 00000-0 76786-3 0 9994 2 43786 97.5074 256.5162 0016209 244.6043 115.3506 15.04723385307223 EAGLET 1 1 43790U 18099AJ 24200.39676328 .00007107 00000-0 52898-3 0 9992 2 43790 97.5256 257.2763 0012787 219.2447 140.7853 15.03182129306969 ESEO 1 43792U 18099AL 24200.69697038 .00004818 00000-0 39314-3 0 9992 2 43792 97.5147 254.2248 0010551 203.3136 156.7611 14.99846564306920 CSIM 1 43793U 18099AM 24200.42665647 .00029272 00000-0 14789-2 0 9994 2 43793 97.5284 264.8950 0012605 197.2932 162.7873 15.16959056307511 JO-97 1 43803U 18099AX 24200.42590679 .00014603 00000-0 94957-3 0 9996 2 43803 97.5195 258.4106 0009934 186.1011 174.0098 15.08052488307409 Suomi 100 1 43804U 18099AY 24200.42736384 .00013432 00000-0 89268-3 0 9990 2 43804 97.5265 258.2029 0015757 188.7895 171.3059 15.07204712307380 ISAT 1 43879U 18111D 24200.53616998 .00018288 00000-0 10849-2 0 9999 2 43879 97.6171 106.1025 0010751 246.8262 113.1836 15.11353380304159 UWE-4 1 43880U 18111E 24200.47661462 .00016506 00000-0 10073-2 0 9990 2 43880 97.6091 105.9827 0014263 259.3998 100.5624 15.10310923304156 Sparrow 1 43881U 18111F 24200.49660238 .00020056 00000-0 11726-2 0 9994 2 43881 97.6253 108.0245 0007979 297.0334 63.0081 15.11882021304215 Prox-1 1 44339U 19036A 24200.19124328 .00016615 00000-0 28215-2 0 9999 2 44339 24.0006 25.8595 0009150 348.2333 11.7947 14.67573341269807 SONATE 1 44400U 19038Q 24200.88703160 .00032357 00000-0 92893-3 0 9998 2 44400 97.7117 196.4308 0014564 2.8846 357.2478 15.35685016278941 Taurus 1 1 44530U 19059C 24200.85784271 .00011212 00000-0 25608-2 0 9990 2 44530 98.5781 321.8776 0010118 318.3162 41.7262 14.55872733256375 Duchifat 3 1 44854U 19089C 24200.45574214 .00021470 00000-0 10484-2 0 9995 2 44854 36.9551 219.0128 0004958 336.6527 23.3995 15.17523713253025 TO-108 1 44881U 19093C 24200.80293668 .00002427 00000-0 29840-3 0 9998 2 44881 97.8277 276.9767 0013568 214.5178 145.5157 14.83864305247735 FloripaSat 1 1 44885U 19093G 24200.83623493 .00010180 00000-0 10411-2 0 9996 2 44885 97.8408 283.1767 0012190 204.6283 155.4354 14.90688261248083 RS-44 1 44909U 19096E 24200.38407107 .00000025 00000-0 61041-4 0 9992 2 44909 82.5203 84.0483 0217239 338.5749 20.6361 12.79731412212963 BY70-2 1 45857U 20042B 24200.84202312 .00334350 00000-0 70446-2 0 9998 2 45857 97.9034 296.7512 0004911 206.0496 154.0505 15.43957677219418 UPMSat 2 1 46276U 20061E 24200.72397725 .00026185 00000-0 76741-3 0 9994 2 46276 97.2962 266.6259 0001780 75.2605 284.8836 15.35179721215018 AmicalSat 1 46287U 20061R 24200.46059644 .00050198 00000-0 12665-2 0 9997 2 46287 97.3476 267.7802 0003184 122.4268 237.7286 15.39684769214378 SALSAT 1 46495U 20068K 24200.87835758 .00010152 00000-0 56699-3 0 9990 2 46495 97.8173 160.9807 0013170 196.5703 163.5099 15.13656763209107 UVSQ-SAT 1 47438U 21006AB 24200.80021113 .00088018 00000-0 14399-2 0 9992 2 47438 97.3240 261.7990 0005881 110.6244 249.5640 15.52193968193638 YUSAT 1 1 47439U 21006AC 24200.73605854 .00751962 23736-3 21759-2 0 9992 2 47439 97.3113 267.9746 0005741 235.3913 124.6820 15.92987502194035 SOMP 2b 1 47445U 21006AJ 24200.54787247 .00073587 00000-0 13814-2 0 9994 2 47445 97.3206 259.6622 0007075 115.4709 244.7274 15.48335584193505 IDEASSat 1 47458U 21006AX 24200.13108925 .00064907 00000-0 13663-2 0 9991 2 47458 97.3311 259.6736 0007522 118.2113 241.9896 15.45032150193362 CubeSX-Sirius-HSE 1 47951U 21022V 24200.83863090 .00030458 00000-0 11412-2 0 9999 2 47951 97.4571 99.1472 0014779 36.3161 323.9077 15.27113744183403 CubeSX-HSE 1 47952U 21022W 24200.85511537 .00031329 00000-0 11693-2 0 9997 2 47952 97.4575 99.2610 0014674 35.4455 324.7756 15.27237251183417 KSU-Cubesat 1 47954U 21022Y 24200.71371062 .00040022 00000-0 13495-2 0 9993 2 47954 97.4583 100.5918 0013296 32.7329 327.4733 15.30525429183207 GRBAlpha 1 47959U 21022AD 24200.81744492 .00032390 00000-0 12053-2 0 9998 2 47959 97.4573 99.3789 0014464 35.5778 324.6422 15.27331253182231 Orbicraft-Zorkiy 1 47960U 21022AE 24200.83420620 .00037960 00000-0 13205-2 0 9994 2 47960 97.4617 100.7923 0013477 34.4777 325.7335 15.29522010182992 STECCO 1 47962U 21022AG 24200.35710373 .00344787 00000-0 24691-2 0 9999 2 47962 97.4519 111.7752 0004506 109.8536 250.3213 15.72693664183003 MO-110 1 47964U 21022AJ 24200.75788747 .00894829 34355-3 26688-2 0 9993 2 47964 97.4506 114.6669 0007806 154.8928 205.2727 15.92404074183210 TUBIN 1 48900U 21059X 24200.89203672 .00024282 00000-0 80313-3 0 9999 2 48900 97.6486 346.4814 0006021 340.4870 19.6139 15.31326676169777 LEDSAT 1 49069U 21073D 24200.73974781 .00027046 00000-0 10463-2 0 9990 2 49069 97.4370 271.6811 0019513 169.1322 191.0342 15.25999223161262 CUTE 1 49263U 21088D 24200.13138786 .00029134 00000-0 13105-2 0 9999 2 49263 97.4961 265.9435 0012392 337.0151 23.0528 15.20995654154346 TeikyoSat 4 1 49396U 21102B 24200.57151801 .00003894 00000-0 28123-3 0 9996 2 49396 97.4582 244.4654 0014026 161.4165 198.7577 15.04571452147475 Z-Sat 1 49399U 21102E 24200.84485042 .00007369 00000-0 47018-3 0 9991 2 49399 97.4298 246.3576 0021474 145.4989 214.7639 15.08785059147761 KOSEN 1 1 49402U 21102H 24200.68807663 .00011628 00000-0 67755-3 0 9998 2 49402 97.4220 247.7613 0020041 130.7385 229.5590 15.11978822147906 HO-113 1 50466U 21131B 24200.81748385 .00001510 00000-0 49600-3 0 9990 2 50466 98.5284 285.7406 0004823 45.9395 314.2189 14.39730042134552 Tevel-3 1 50988U 22002E 24200.81166699 .00608863 00000-0 22365-2 0 9991 2 50988 97.3674 278.6851 0008577 241.2971 118.7439 15.86797690140037 Tevel-8 1 50989U 22002F 24200.79674333 .00571891 00000-0 21642-2 0 9995 2 50989 97.3702 278.7569 0008640 241.3876 118.6526 15.86264745140028 Tevel-6 1 50999U 22002R 24200.20951277 .04558338 24276-5 17309-2 0 9993 2 50999 97.3473 280.1549 0015110 264.4163 95.5405 16.23951314140086 Tevel-1 1 51013U 22002AF 24200.85214992 .00594348 00000-0 22579-2 0 9994 2 51013 97.3678 278.5543 0008655 239.3514 120.6904 15.86131829140031 IRIS-A 1 51044U 22002BN 24200.72720604 .00032066 00000-0 10047-2 0 9997 2 51044 97.3835 267.1510 0004405 273.5940 86.4799 15.33011963139251 Tevel-7 1 51062U 22002CG 24200.33275050 .00572133 00000-0 21482-2 0 9993 2 51062 97.3701 278.2466 0008664 240.3223 119.7186 15.86426972139958 Tevel-4 1 51063U 22002CH 24200.84302891 .00556494 00000-0 22274-2 0 9996 2 51063 97.3709 278.6247 0008576 238.8868 121.1562 15.85128089140029 Tevel-2 1 51069U 22002CP 24200.80801712 .00598245 00000-0 21957-2 0 9991 2 51069 97.3670 278.6501 0008524 240.8643 119.1776 15.86839644140034 OreSat0 1 52017U 22026K 24200.58798757 .00134825 00000-0 16915-2 0 9998 2 52017 97.4911 216.4132 0013742 109.3754 250.8989 15.59169564130593 Planetum 1 1 52738U 22057G 24200.33177156 .00063825 00000-0 13723-2 0 9994 2 52738 97.5681 327.6671 0003912 43.3673 316.7883 15.44432015119372 Foresail-1 1 52766U 22057AL 24200.33275080 .00029124 00000-0 90122-3 0 9993 2 52766 97.5851 326.6087 0009084 26.8608 333.3103 15.33401049119227 SNUGLITE 2 1 52899U 22065F 24200.62982504 .00003205 00000-0 66277-3 0 9993 2 52899 98.1230 341.1743 0008703 60.7889 299.4181 14.60970255108852 IO-117 1 53106U 22080B 24198.22903495 -.00000003 00000-0 00000-0 0 9999 2 53106 70.1332 182.4315 0007583 100.7878 259.3635 6.42557627 47133 SelfieSat 1 53951U 22057BC 24200.33677334 .00178566 00000-0 19147-2 0 9990 2 53951 97.5670 332.3104 0002489 338.0256 22.0895 15.63229086119644 FO-118 1 54684U 22167C 24200.83130624 .00041208 00000-0 13225-2 0 9990 2 54684 97.6074 346.4574 0009390 37.3918 322.7975 15.32156256 89140 SSS-2B 1 56184U 23054G 24200.81627989 .00057911 00000-0 12813-2 0 9996 2 56184 97.3654 99.1247 0008805 74.3726 285.8493 15.43576308 71012 CIRBE 1 56188U 23054L 24200.24444722 .00114374 00000-0 15197-2 0 9994 2 56188 97.3573 101.0442 0006561 84.2862 275.9141 15.57794526 71114 INSPIRE-Sat 7 1 56211U 23054AK 24200.69769520 .00148922 00000-0 17414-2 0 9996 2 56211 97.3579 102.9006 0006992 60.9672 299.2285 15.61058440 71268 RoseyCubesat 1 1 56212U 23054AL 24200.84142754 .00204342 00000-0 18056-2 0 9990 2 56212 97.3590 104.1258 0006659 69.3977 290.7997 15.68006008 71352 SO-120 1 56992U 23084BU 24200.59831897 .00045553 00000-0 15513-2 0 9995 2 56992 97.5336 320.3446 0011237 270.2304 89.7648 15.30197946 60980 MRC-100 1 56993U 23084BV 24200.84913356 .00053757 00000-0 16922-2 0 9995 2 56993 97.5333 321.1090 0010886 267.6073 92.3922 15.32693486 61061 UmKA 1 (RS40S) 1 57172U 23091G 24200.85489957 .00008894 00000-0 57992-3 0 9994 2 57172 97.6101 252.5851 0016777 19.6527 340.5344 15.08011343 58264 CubeBel-2 (EU11S) 1 57175U 23091K 24200.85585143 .00011802 00000-0 75138-3 0 9996 2 57175 97.6102 252.5720 0015367 32.0568 328.1592 15.08828895 58266 VERONIKA 1 58261U 23174F 24200.82316423 .00030579 00000-0 13166-2 0 9999 2 58261 97.4600 275.3397 0013149 131.6048 228.6317 15.22470779 38528 KAFASAT 1 58317U 23174BP 24200.83280613 .00038073 00000-0 14692-2 0 9995 2 58317 97.4544 276.0621 0011779 111.4622 248.7874 15.26123258 38584 ENSO 1 58470U 23185J 24200.85267054 .00026266 00000-0 10693-2 0 9991 2 58470 97.4257 267.2608 0013276 162.5980 197.5716 15.24395428 34962 EIRSAT-1 1 58472U 23185L 24200.87869946 .00030847 00000-0 12294-2 0 9992 2 58472 97.4249 267.3564 0012848 163.4629 196.7031 15.25080099 34979 SO-121 1 58567U 23174CY 24200.68112061 .00088775 00000-0 27142-2 0 9994 2 58567 97.4531 276.5805 0011771 123.1645 237.0728 15.33450066 38603 SONATE-2 1 59112U 24043Q 24200.59260145 .00017711 00000-0 83702-3 0 9991 2 59112 97.4813 324.1124 0014995 180.7041 179.4175 15.19364465 20570 KASHIWA 1 59508U 98067WH 24200.56107636 .00392914 00000-0 18911-2 0 9999 2 59508 51.6251 150.3553 0009029 90.7543 269.4493 15.80953994 15432 MESAT1 1 60209U 24125G 24199.12255324 .00015234 00000-0 71734-3 0 9990 2 60209 97.3222 51.6252 0025796 215.8933 144.0569 15.19321115 1969 GRBBETA 1 60236U 24128B 24200.48011519 .00004531 00000-0 40975-3 0 9992 2 60236 61.9945 131.7429 0010101 283.0408 76.9552 14.96831461 1297 ROBUSTA-3A 1 60243U 24128J 24200.55364680 .00011249 00000-0 10187-2 0 9993 2 60243 61.9920 131.5373 0012839 255.9264 104.0396 14.95728391 1309 /EX
